Troy, MI

5:58 PM EDT on March 27, 2017 (GMT -0400)
Troy

Weather History for KVLL - January, 2013

Change the Weather History Date:

Friday, January 18, 2013

  Actual Average (KDET) Record (KDET)
Temperature  
Mean Temperature 28 °F -  
Max Temperature 38 °F 31 °F 56 °F (1973)
Min Temperature 18 °F 19 °F -2 °F (1976)
Degree Days  
Heating Degree Days 37    
Moisture  
Dew Point 14 °F    
Average Humidity 56    
Maximum Humidity 71    
Minimum Humidity 40    
Precipitation  
Precipitation 0.00 in - - ()
Sea Level Pressure  
Sea Level Pressure 30.28 in    
Wind  
Wind Speed 8 mph (SW)    
Max Wind Speed 22 mph    
Max Gust Speed 36 mph    
Visibility 10 miles    
Events Snow    
Averages and records for this station are not official NWS values.
T = Trace of Precipitation, MM = Missing Value Source: NWS Daily Summary

Daily Weather History Graph

Daily Weather History Graph

Search for Another Location

Airport or City:

Trip Planner

Search our weather history database for the weather conditions in past years. The results will help you decide how hot, cold, wet, or windy it might be!

Date:

Astronomy

Jan. 18, 2013 Rise Set
Actual Time 7:58 AM EST 5:28 PM EST
Civil Twilight 7:27 AM EST 5:59 PM EST
Nautical Twilight 6:52 AM EST 6:34 PM EST
Astronomical Twilight 6:18 AM EST 7:07 PM EST
Moon 11:25 AM EST (1/18) 12:28 AM EST (1/18)
Length of Visible Light 10h 32m
Length of Day
9h 30m
Waxing Crescent, 47% of the Moon is Illuminated
Jan 18
Waxing Crescent
Jan 18
First Quarter
Jan 26
Full
Feb 3
Last Quarter
Feb 10
New

Hourly Weather History & Observations

Time (EST) Temp. Windchill Dew Point Humidity Pressure Visibility Wind Dir Wind Speed Gust Speed Precip Events Conditions
12:14 AM 21.6 °F 9.9 °F 5.2 °F 49% 30.32 in 10.0 mi NW 11.5 mph 17.3 mph N/A   Clear
12:35 AM 21.2 °F 14.9 °F 5.7 °F 51% 30.33 in 10.0 mi WNW 4.6 mph - N/A   Clear
12:54 AM 21.0 °F 13.4 °F 6.3 °F 53% 30.35 in 10.0 mi WNW 5.8 mph - N/A   Clear
1:14 AM 20.8 °F 11.2 °F 6.4 °F 54% 30.36 in 10.0 mi WNW 8.1 mph - N/A   Clear
1:35 AM 20.8 °F 12.1 °F 6.6 °F 54% 30.37 in 10.0 mi WNW 6.9 mph - N/A   Clear
1:54 AM 20.7 °F 10.2 °F 6.8 °F 55% 30.38 in 10.0 mi WNW 9.2 mph - N/A   Clear
2:15 AM 20.3 °F 13.8 °F 7.5 °F 58% 30.38 in 10.0 mi WNW 4.6 mph - N/A   Clear
2:35 AM 20.3 °F 13.8 °F 7.7 °F 58% 30.39 in 10.0 mi West 4.6 mph - N/A   Clear
2:54 AM 20.3 °F 13.8 °F 8.4 °F 60% 30.40 in 10.0 mi WNW 4.6 mph - N/A   Clear
3:15 AM 19.9 °F 14.9 °F 9.1 °F 63% 30.41 in 10.0 mi WSW 3.5 mph - N/A   Clear
3:35 AM 19.9 °F 14.9 °F 9.3 °F 63% 30.42 in 10.0 mi WSW 3.5 mph - N/A   Clear
3:54 AM 19.9 °F - 9.5 °F 64% 30.42 in 10.0 mi Calm Calm - N/A   Mostly Cloudy
4:15 AM 19.4 °F - 9.5 °F 65% 30.42 in 10.0 mi Calm Calm - N/A   Scattered Clouds
4:34 AM 19.4 °F - 9.9 °F 66% 30.42 in 10.0 mi Calm Calm - N/A   Clear
4:54 AM 19.0 °F - 9.9 °F 67% 30.42 in 10.0 mi Calm Calm - N/A   Clear
5:15 AM 18.9 °F - 10.2 °F 69% 30.42 in 10.0 mi Calm Calm - N/A   Clear
5:34 AM 19.2 °F 14.1 °F 10.4 °F 69% 30.42 in 10.0 mi SW 3.5 mph - N/A   Mostly Cloudy
5:55 AM 20.1 °F - 10.6 °F 67% 30.43 in 10.0 mi Calm Calm - N/A   Overcast
6:14 AM 20.3 °F - 10.8 °F 67% 30.43 in 10.0 mi Calm Calm - N/A   Overcast
6:35 AM 19.8 °F - 10.6 °F 68% 30.43 in 10.0 mi Calm Calm - N/A   Mostly Cloudy
6:55 AM 19.2 °F - 10.8 °F 70% 30.44 in 10.0 mi Calm Calm - N/A   Scattered Clouds
7:14 AM 19.6 °F - 11.3 °F 70% 30.44 in 10.0 mi Calm Calm - N/A   Mostly Cloudy
7:35 AM 20.1 °F 15.2 °F 11.3 °F 69% 30.45 in 10.0 mi SSW 3.5 mph - N/A   Mostly Cloudy
7:54 AM 20.1 °F 15.2 °F 11.5 °F 69% 30.44 in 10.0 mi SSW 3.5 mph - N/A   Mostly Cloudy
8:14 AM 19.9 °F - 11.7 °F 70% 30.44 in 10.0 mi Calm Calm - N/A   Scattered Clouds
8:35 AM 20.3 °F 15.4 °F 12.2 °F 71% 30.44 in 10.0 mi SSW 3.5 mph - N/A   Clear
8:54 AM 21.2 °F - 12.6 °F 69% 30.43 in 10.0 mi Calm Calm - N/A   Clear
9:14 AM 22.3 °F 14.9 °F 12.4 °F 66% 30.43 in 10.0 mi SW 5.8 mph - N/A   Clear
9:35 AM 23.2 °F 15.0 °F 10.9 °F 60% 30.45 in 10.0 mi SSW 6.9 mph - N/A   Scattered Clouds
9:54 AM 23.9 °F 15.0 °F 10.0 °F 56% 30.44 in 10.0 mi SW 8.1 mph - N/A   Clear
10:15 AM 24.6 °F 15.1 °F 10.4 °F 55% 30.44 in 10.0 mi South 9.2 mph - N/A   Mostly Cloudy
10:34 AM 25.3 °F 16.0 °F 10.4 °F 53% 30.43 in 10.0 mi South 9.2 mph - N/A   Mostly Cloudy
10:54 AM 26.4 °F 19.8 °F 11.1 °F 53% 30.43 in 10.0 mi SSW 5.8 mph - N/A   Scattered Clouds
11:15 AM 27.3 °F 19.9 °F 12.0 °F 53% 30.42 in 10.0 mi SSW 6.9 mph - N/A   Mostly Cloudy
11:34 AM 28.2 °F 19.5 °F 13.1 °F 53% 30.40 in 10.0 mi SSW 9.2 mph 16.1 mph N/A   Overcast
11:55 AM 28.9 °F 21.9 °F 14.7 °F 55% 30.38 in 10.0 mi SSW 6.9 mph - N/A   Overcast
12:15 PM 29.3 °F 21.5 °F 14.9 °F 55% 30.36 in 10.0 mi SSW 8.1 mph 16.1 mph N/A   Overcast
12:34 PM 30.0 °F 21.1 °F 15.4 °F 55% 30.34 in 10.0 mi SSW 10.4 mph 17.3 mph N/A   Mostly Cloudy
12:55 PM 30.2 °F 20.8 °F 15.4 °F 54% 30.32 in 10.0 mi SW 11.5 mph 18.4 mph N/A   Overcast
1:15 PM 30.9 °F 23.5 °F 17.2 °F 57% 30.31 in 10.0 mi SSW 8.1 mph - N/A Snow Light Snow
1:34 PM 30.7 °F 20.9 °F 20.1 °F 65% 30.29 in 4.0 mi SSW 12.7 mph 20.7 mph N/A Snow Light Snow
1:55 PM 32.0 °F 23.0 °F 18.3 °F 57% 30.26 in 10.0 mi SSW 11.5 mph 20.7 mph N/A   Overcast
2:14 PM 32.9 °F 23.7 °F 15.6 °F 49% 30.25 in 10.0 mi SSW 12.7 mph 21.9 mph N/A   Overcast
2:34 PM 34.0 °F 26.0 °F 15.8 °F 47% 30.23 in 10.0 mi SSW 10.4 mph 20.7 mph N/A   Mostly Cloudy
2:55 PM 34.9 °F 25.3 °F 14.0 °F 42% 30.21 in 10.0 mi SSW 15.0 mph 21.9 mph N/A   Scattered Clouds
3:14 PM 34.9 °F 24.6 °F 14.4 °F 43% 30.20 in 10.0 mi SSW 17.3 mph 25.3 mph N/A   Mostly Cloudy
3:34 PM 35.4 °F 26.4 °F 15.1 °F 43% 30.18 in 10.0 mi SSW 13.8 mph 25.3 mph N/A   Scattered Clouds
3:55 PM 35.6 °F 27.1 °F 14.9 °F 43% 30.16 in 10.0 mi SSW 12.7 mph 27.6 mph N/A   Scattered Clouds
4:14 PM 36.3 °F 26.8 °F 13.8 °F 40% 30.16 in 10.0 mi SSW 16.1 mph 28.8 mph N/A   Clear
4:35 PM 36.0 °F 24.7 °F 15.3 °F 43% 30.15 in 10.0 mi SSW 21.9 mph 28.8 mph N/A   Clear
4:54 PM 35.6 °F 26.6 °F 16.7 °F 46% 30.14 in 10.0 mi SSW 13.8 mph 28.8 mph N/A   Clear
5:15 PM 35.2 °F 23.8 °F 17.8 °F 49% 30.12 in 10.0 mi SSW 21.9 mph 28.8 mph N/A   Clear
5:35 PM 35.2 °F 25.0 °F 18.7 °F 51% 30.12 in 10.0 mi SSW 17.3 mph 23.0 mph N/A   Clear
5:54 PM 35.6 °F 26.2 °F 19.4 °F 52% 30.11 in 10.0 mi SSW 15.0 mph 27.6 mph N/A   Clear
6:15 PM 35.8 °F 26.5 °F 19.9 °F 53% 30.11 in 10.0 mi SSW 15.0 mph 28.8 mph N/A   Clear
6:35 PM 36.0 °F 27.1 °F 20.3 °F 53% 30.10 in 10.0 mi SSW 13.8 mph 21.9 mph N/A   Scattered Clouds
6:54 PM 36.1 °F 25.9 °F 20.3 °F 53% 30.09 in 10.0 mi SSW 18.4 mph 26.5 mph N/A   Scattered Clouds
7:15 PM 36.5 °F 26.0 °F 20.3 °F 52% 30.07 in 10.0 mi SSW 19.6 mph 26.5 mph N/A   Scattered Clouds
7:35 PM 37.2 °F 27.3 °F 19.4 °F 49% 30.07 in 10.0 mi SSW 18.4 mph 26.5 mph N/A   Scattered Clouds
7:54 PM 37.4 °F 26.9 °F 18.5 °F 46% 30.05 in 10.0 mi SSW 20.7 mph 26.5 mph N/A   Mostly Cloudy
8:15 PM 37.8 °F 28.0 °F 18.1 °F 45% 30.04 in 10.0 mi SSW 18.4 mph 28.8 mph N/A   Scattered Clouds
8:34 PM 38.1 °F 29.1 °F 17.8 °F 44% 30.04 in 10.0 mi SSW 16.1 mph 26.5 mph N/A   Clear
8:55 PM 38.3 °F 29.0 °F 17.6 °F 43% 30.03 in 10.0 mi SW 17.3 mph 21.9 mph N/A   Clear
9:15 PM 38.7 °F 28.6 °F 18.0 °F 43% 30.04 in 10.0 mi SW 20.7 mph 29.9 mph N/A   Clear
9:34 PM 38.7 °F 28.3 °F 18.9 °F 45% 30.03 in 10.0 mi SW 21.9 mph 31.1 mph N/A   Clear
10:34 PM 37.9 °F 27.9 °F 21.0 °F 51% 30.01 in 10.0 mi SW 19.6 mph 29.9 mph N/A   Clear
10:55 PM 38.1 °F 28.1 °F 21.2 °F 51% 30.00 in 10.0 mi SW 19.6 mph 35.7 mph N/A   Clear
11:14 PM 37.8 °F 28.0 °F 21.7 °F 53% 30.00 in 10.0 mi SW 18.4 mph 29.9 mph N/A   Clear
11:34 PM 37.8 °F 28.6 °F 22.1 °F 53% 29.99 in 10.0 mi SW 16.1 mph 27.6 mph N/A   Clear
11:55 PM 37.8 °F 27.7 °F 22.3 °F 54% 29.98 in 10.0 mi SW 19.6 mph 25.3 mph N/A   Clear